Location: Ash Swamp
(41.5170°N, 74.6157°W)
Time: 02:29:05
(UTC+00:00)

Cosmos 1954 Rocket - Pass Details

Date: 14 July 2020
Orbit: 751 x 782 km, 74.0° (Epoch: 14 August)

Event Time Altitude Azimuth Distance (km) Brightness Sun altitude
Exits shadow 07:09:00 43° 195° (SSW) 1,076 4.3 -20.6°
Maximum altitude 07:10:48 87° 109° (ESE) 780 3.9 -20.4°
Drops below altitude 10° 07:16:07 10° 20° (NNE) 2,336 7.7 -19.9°
Sets 07:18:31 0° 20° (NNE) 3,271 8.7 -19.7°
